Time,TemperatureF,DewpointF,PressureIn,WindDirection,WindDirectionDegrees,WindSpeedMPH,WindSpeedGustMPH,Humidity,HourlyPrecipIn,Conditions,Clouds,dailyrainin,SoftwareType,DateUTC
2013-01-07 00:00:00,27.0,0.0,30.34,SW,219,6.5,8.9,0,0.00,,---,0.00,VWS V14.00,2013-01-07 05:00:00,
2013-01-07 00:01:00,27.0,0.0,30.34,SSW,194,3.5,8.9,0,0.00,,---,0.00,VWS V14.00,2013-01-07 05:01:00,
2013-01-07 00:02:00,34.6,0.0,29.92,West,274,0.0,8.5,0,0.00,,---,0.00,VWS V14.00,2013-01-07 05:02:00,
2013-01-07 00:03:00,27.0,0.0,30.34,South,181,5.0,8.9,0,0.00,,---,0.00,VWS V14.00,2013-01-07 05:03:00,
2013-01-07 00:04:00,27.0,0.0,30.34,SSW,211,3.4,8.9,0,0.00,,---,0.00,VWS V14.00,2013-01-07 05:04:00,
2013-01-07 00:05:00,27.0,0.0,30.34,SW,231,8.0,8.0,0,0.00,,---,0.00,VWS V14.00,2013-01-07 05:05:00,
2013-01-07 00:06:00,27.0,0.0,30.34,SW,222,0.0,7.5,0,0.00,,---,0.00,VWS V14.00,2013-01-07 05:06:00,
2013-01-07 00:07:00,34.4,0.0,29.92,West,274,0.0,6.5,0,0.00,,---,0.00,VWS V14.00,2013-01-07 05:07:00,
2013-01-07 00:08:00,26.9,0.0,30.34,SSW,195,4.2,7.5,0,0.00,,---,0.00,VWS V14.00,2013-01-07 05:08:00,
2013-01-07 00:12:00,34.7,0.0,29.92,West,273,4.2,0.0,0,0.00,,---,0.00,VWS V14.00,2013-01-07 05:12:00,
2013-01-07 00:17:00,34.7,0.0,29.92,WNW,297,0.0,6.2,0,0.00,,---,0.00,VWS V14.00,2013-01-07 05:17:00,
2013-01-07 00:22:00,34.5,0.0,29.93,West,260,0.0,4.6,0,0.00,,---,0.00,VWS V14.00,2013-01-07 05:22:00,
2013-01-07 00:27:00,34.5,0.0,29.93,West,260,0.0,0.0,0,0.00,,---,0.00,VWS V14.00,2013-01-07 05:27:00,
2013-01-07 00:32:00,34.7,0.0,29.93,West,277,0.0,0.0,0,0.00,,---,0.00,VWS V14.00,2013-01-07 05:32:00,
2013-01-07 00:37:00,34.8,0.0,29.93,South,170,3.0,8.5,0,0.00,,---,0.00,VWS V14.00,2013-01-07 05:37:00,
2013-01-07 00:42:00,34.8,0.0,29.93,South,170,0.0,7.8,0,0.00,,---,0.00,VWS V14.00,2013-01-07 05:42:00,
2013-01-07 00:47:00,34.6,0.0,29.93,South,170,0.0,0.0,0,0.00,,---,0.00,VWS V14.00,2013-01-07 05:47:00,
2013-01-07 00:52:00,34.3,0.0,29.93,WSW,240,0.0,2.5,0,0.00,,---,0.00,VWS V14.00,2013-01-07 05:52:00,
2013-01-07 00:57:00,34.3,0.0,29.93,SW,219,0.0,9.9,0,0.00,,---,0.00,VWS V14.00,2013-01-07 05:57:00,
2013-01-07 01:02:00,34.3,0.0,29.93,SSW,210,5.8,7.1,0,0.00,,---,0.00,VWS V14.00,2013-01-07 06:02:00,
2013-01-07 01:07:00,34.4,0.0,29.94,WSW,249,6.5,10.1,0,0.00,,---,0.00,VWS V14.00,2013-01-07 06:07:00,
2013-01-07 01:12:00,34.3,0.0,29.94,SSW,210,5.2,9.6,0,0.00,,---,0.00,VWS V14.00,2013-01-07 06:12:00,
2013-01-07 01:17:00,34.1,0.0,29.94,SW,226,0.0,9.8,0,0.00,,---,0.00,VWS V14.00,2013-01-07 06:17:00,
2013-01-07 01:22:00,33.9,0.0,29.94,WSW,245,0.0,8.7,0,0.00,,---,0.00,VWS V14.00,2013-01-07 06:22:00,
2013-01-07 01:27:00,33.8,0.0,29.95,SW,224,2.7,8.4,0,0.00,,---,0.00,VWS V14.00,2013-01-07 06:27:00,
2013-01-07 01:32:00,33.9,0.0,29.95,WSW,246,0.0,9.0,0,0.00,,---,0.00,VWS V14.00,2013-01-07 06:32:00,
2013-01-07 01:37:00,34.1,0.0,29.95,West,270,0.0,9.2,0,0.00,,---,0.00,VWS V14.00,2013-01-07 06:37:00,
2013-01-07 01:42:00,34.2,0.0,29.95,NW,326,0.0,6.1,0,0.00,,---,0.00,VWS V14.00,2013-01-07 06:42:00,
2013-01-07 01:47:00,34.1,0.0,29.95,WNW,291,0.0,7.0,0,0.00,,---,0.00,VWS V14.00,2013-01-07 06:47:00,
2013-01-07 01:52:00,34.0,0.0,29.95,WSW,255,0.0,6.8,0,0.00,,---,0.00,VWS V14.00,2013-01-07 06:52:00,
2013-01-07 01:57:00,33.9,0.0,29.95,SSW,204,3.3,3.4,0,0.00,,---,0.00,VWS V14.00,2013-01-07 06:57:00,
2013-01-07 02:02:00,34.0,0.0,29.95,SW,219,4.7,5.2,0,0.00,,---,0.00,VWS V14.00,2013-01-07 07:02:00,
2013-01-07 02:07:00,34.1,0.0,29.96,WNW,301,4.2,8.1,0,0.00,,---,0.00,VWS V14.00,2013-01-07 07:07:00,
2013-01-07 02:12:00,34.4,0.0,29.96,South,173,3.2,9.5,0,0.00,,---,0.00,VWS V14.00,2013-01-07 07:12:00,
2013-01-07 02:17:00,34.3,0.0,29.96,WSW,248,0.0,9.5,0,0.00,,---,0.00,VWS V14.00,2013-01-07 07:17:00,
2013-01-07 02:22:00,34.2,0.0,29.96,SSE,149,4.2,8.5,0,0.00,,---,0.00,VWS V14.00,2013-01-07 07:22:00,
2013-01-07 02:27:00,34.4,0.0,29.96,NW,304,5.0,12.7,0,0.00,,---,0.00,VWS V14.00,2013-01-07 07:27:00,
2013-01-07 02:32:00,34.5,0.0,29.96,SSW,205,0.0,12.1,0,0.00,,---,0.00,VWS V14.00,2013-01-07 07:32:00,
2013-01-07 02:37:00,34.6,0.0,29.96,WNW,287,5.1,8.3,0,0.00,,---,0.00,VWS V14.00,2013-01-07 07:37:00,
2013-01-07 02:42:00,34.4,0.0,29.96,SW,214,0.0,9.9,0,0.00,,---,0.00,VWS V14.00,2013-01-07 07:42:00,
2013-01-07 02:47:00,34.3,0.0,29.96,WSW,252,5.3,8.9,0,0.00,,---,0.00,VWS V14.00,2013-01-07 07:47:00,
2013-01-07 02:52:00,34.0,0.0,29.96,West,280,3.4,10.4,0,0.00,,---,0.00,VWS V14.00,2013-01-07 07:52:00,
2013-01-07 02:57:00,33.7,0.0,29.97,SW,215,0.0,7.6,0,0.00,,---,0.00,VWS V14.00,2013-01-07 07:57:00,
2013-01-07 03:02:00,33.8,0.0,29.97,WSW,240,8.2,8.2,0,0.00,,---,0.00,VWS V14.00,2013-01-07 08:02:00,
2013-01-07 03:07:00,33.9,0.0,29.97,SW,236,3.4,10.4,0,0.00,,---,0.00,VWS V14.00,2013-01-07 08:07:00,
2013-01-07 03:12:00,34.0,0.0,29.97,SW,222,3.2,7.5,0,0.00,,---,0.00,VWS V14.00,2013-01-07 08:12:00,
2013-01-07 03:17:00,34.0,0.0,29.97,WSW,249,4.7,8.9,0,0.00,,---,0.00,VWS V14.00,2013-01-07 08:17:00,
2013-01-07 03:22:00,34.0,0.0,29.96,NW,305,3.4,9.2,0,0.00,,---,0.00,VWS V14.00,2013-01-07 08:22:00,
2013-01-07 03:27:00,33.9,0.0,29.96,West,267,0.0,7.8,0,0.00,,---,0.00,VWS V14.00,2013-01-07 08:27:00,
2013-01-07 03:32:00,33.4,0.0,29.97,West,267,0.0,9.3,0,0.00,,---,0.00,VWS V14.00,2013-01-07 08:32:00,
2013-01-07 03:37:00,32.8,0.0,29.97,WNW,301,0.0,0.0,0,0.00,,---,0.00,VWS V14.00,2013-01-07 08:37:00,
2013-01-07 03:42:00,32.6,0.0,29.97,WNW,297,0.0,3.3,0,0.00,,---,0.00,VWS V14.00,2013-01-07 08:42:00,
2013-01-07 03:47:00,32.5,0.0,29.98,West,273,0.0,6.8,0,0.00,,---,0.00,VWS V14.00,2013-01-07 08:47:00,
2013-01-07 03:52:00,32.4,0.0,29.98,West,273,0.0,4.7,0,0.00,,---,0.00,VWS V14.00,2013-01-07 08:52:00,
2013-01-07 03:57:00,32.2,0.0,29.98,West,273,0.0,0.0,0,0.00,,---,0.00,VWS V14.00,2013-01-07 08:57:00,
2013-01-07 04:02:00,32.2,0.0,29.98,WSW,248,0.0,0.0,0,0.00,,---,0.00,VWS V14.00,2013-01-07 09:02:00,
2013-01-07 04:07:00,32.3,0.0,29.98,WSW,248,0.0,5.2,0,0.00,,---,0.00,VWS V14.00,2013-01-07 09:07:00,
2013-01-07 04:12:00,32.3,0.0,29.99,West,278,0.0,0.0,0,0.00,,---,0.00,VWS V14.00,2013-01-07 09:12:00,
2013-01-07 04:17:00,32.3,0.0,29.98,WSW,246,0.0,5.2,0,0.00,,---,0.00,VWS V14.00,2013-01-07 09:17:00,
2013-01-07 04:22:00,32.1,0.0,29.99,WNW,283,0.0,8.7,0,0.00,,---,0.00,VWS V14.00,2013-01-07 09:22:00,
2013-01-07 04:27:00,32.2,0.0,29.99,WNW,283,0.0,5.2,0,0.00,,---,0.00,VWS V14.00,2013-01-07 09:27:00,
2013-01-07 04:32:00,32.4,0.0,29.99,West,259,0.0,5.1,0,0.00,,---,0.00,VWS V14.00,2013-01-07 09:32:00,
2013-01-07 04:37:00,32.5,0.0,29.99,SW,231,0.0,0.0,0,0.00,,---,0.00,VWS V14.00,2013-01-07 09:37:00,
2013-01-07 04:42:00,32.6,0.0,30.00,WNW,291,0.0,7.1,0,0.00,,---,0.00,VWS V14.00,2013-01-07 09:42:00,
2013-01-07 04:47:00,32.4,0.0,30.00,WNW,302,0.0,7.0,0,0.00,,---,0.00,VWS V14.00,2013-01-07 09:47:00,
2013-01-07 04:52:00,32.3,0.0,30.00,WNW,302,0.0,6.9,0,0.00,,---,0.00,VWS V14.00,2013-01-07 09:52:00,
2013-01-07 04:57:00,32.1,0.0,30.00,WNW,291,0.0,5.1,0,0.00,,---,0.00,VWS V14.00,2013-01-07 09:57:00,
2013-01-07 05:01:00,32.1,0.0,30.01,WNW,291,0.0,0.0,0,0.00,,---,0.00,VWS V14.00,2013-01-07 10:01:00,
2013-01-07 05:06:00,32.0,0.0,30.01,WNW,291,0.0,0.0,0,0.00,,---,0.00,VWS V14.00,2013-01-07 10:06:00,
2013-01-07 05:11:00,31.9,0.0,30.01,West,273,0.0,0.0,0,0.00,,---,0.00,VWS V14.00,2013-01-07 10:11:00,
2013-01-07 05:16:00,32.0,0.0,30.02,West,273,0.0,4.5,0,0.00,,---,0.00,VWS V14.00,2013-01-07 10:16:00,
2013-01-07 05:21:00,32.1,0.0,30.02,WSW,256,0.0,0.0,0,0.00,,---,0.00,VWS V14.00,2013-01-07 10:21:00,
2013-01-07 05:26:00,32.3,0.0,30.02,West,259,0.0,5.7,0,0.00,,---,0.00,VWS V14.00,2013-01-07 10:26:00,
2013-01-07 05:31:00,32.2,0.0,30.02,West,281,0.0,8.2,0,0.00,,---,0.00,VWS V14.00,2013-01-07 10:31:00,
2013-01-07 05:36:00,32.3,0.0,30.02,West,281,0.0,0.0,0,0.00,,---,0.00,VWS V14.00,2013-01-07 10:36:00,
2013-01-07 05:41:00,32.2,0.0,30.02,West,281,0.0,0.0,0,0.00,,---,0.00,VWS V14.00,2013-01-07 10:41:00,
2013-01-07 05:46:00,32.2,0.0,30.03,West,281,0.0,0.0,0,0.00,,---,0.00,VWS V14.00,2013-01-07 10:46:00,
2013-01-07 05:51:00,32.2,0.0,30.03,West,281,0.0,0.0,0,0.00,,---,0.00,VWS V14.00,2013-01-07 10:51:00,
2013-01-07 05:56:00,32.2,0.0,30.04,West,281,0.0,0.0,0,0.00,,---,0.00,VWS V14.00,2013-01-07 10:56:00,
2013-01-07 06:01:00,32.8,0.0,30.04,NW,323,8.1,0.0,0,0.00,,---,0.00,VWS V14.00,2013-01-07 11:01:00,
2013-01-07 06:06:00,32.8,0.0,30.04,West,277,6.7,10.9,0,0.00,,---,0.00,VWS V14.00,2013-01-07 11:06:00,
2013-01-07 06:11:00,32.9,0.0,30.05,WNW,300,8.8,12.2,0,0.00,,---,0.00,VWS V14.00,2013-01-07 11:11:00,
2013-01-07 06:16:00,33.1,0.0,30.05,NW,323,0.0,12.7,0,0.00,,---,0.00,VWS V14.00,2013-01-07 11:16:00,
2013-01-07 06:21:00,33.0,0.0,30.05,WNW,284,0.0,14.7,0,0.00,,---,0.00,VWS V14.00,2013-01-07 11:21:00,
2013-01-07 06:26:00,33.0,0.0,30.05,North,10,5.6,10.7,0,0.00,,---,0.00,VWS V14.00,2013-01-07 11:26:00,
2013-01-07 06:31:00,33.0,0.0,30.05,WNW,290,6.8,11.3,0,0.00,,---,0.00,VWS V14.00,2013-01-07 11:31:00,
2013-01-07 06:36:00,33.0,0.0,30.06,NNW,342,4.9,10.4,0,0.00,,---,0.00,VWS V14.00,2013-01-07 11:36:00,
2013-01-07 06:41:00,33.1,0.0,30.06,West,273,4.3,10.2,0,0.00,,---,0.00,VWS V14.00,2013-01-07 11:41:00,
2013-01-07 06:46:00,32.9,0.0,30.07,NNW,328,7.5,13.9,0,0.00,,---,0.00,VWS V14.00,2013-01-07 11:46:00,
2013-01-07 06:51:00,32.9,0.0,30.07,NW,312,5.8,13.9,0,0.00,,---,0.00,VWS V14.00,2013-01-07 11:51:00,
2013-01-07 06:56:00,32.7,0.0,30.08,West,264,8.0,11.7,0,0.00,,---,0.00,VWS V14.00,2013-01-07 11:56:00,
2013-01-07 07:01:00,32.8,0.0,30.08,NW,309,4.9,11.3,0,0.00,,---,0.00,VWS V14.00,2013-01-07 12:01:00,
2013-01-07 07:06:00,33.2,0.0,30.09,NW,307,12.9,12.9,0,0.00,,---,0.00,VWS V14.00,2013-01-07 12:06:00,
2013-01-07 07:11:00,33.4,0.0,30.09,WNW,284,11.0,14.0,0,0.00,,---,0.00,VWS V14.00,2013-01-07 12:11:00,
2013-01-07 07:16:00,33.5,0.0,30.09,NW,314,8.6,14.8,0,0.00,,---,0.00,VWS V14.00,2013-01-07 12:16:00,
2013-01-07 07:21:00,33.4,0.0,30.10,West,276,5.4,15.0,0,0.00,,---,0.00,VWS V14.00,2013-01-07 12:21:00,
2013-01-07 07:26:00,33.3,0.0,30.10,WNW,290,6.5,13.4,0,0.00,,---,0.00,VWS V14.00,2013-01-07 12:26:00,
2013-01-07 07:31:00,33.0,0.0,30.10,NNW,330,7.1,13.0,0,0.00,,---,0.00,VWS V14.00,2013-01-07 12:31:00,
2013-01-07 07:36:00,32.3,0.0,30.11,NW,325,0.0,11.6,0,0.00,,---,0.00,VWS V14.00,2013-01-07 12:36:00,
2013-01-07 07:41:00,32.0,0.0,30.12,NNW,345,7.8,8.1,0,0.00,,---,0.00,VWS V14.00,2013-01-07 12:41:00,
2013-01-07 07:46:00,32.1,0.0,30.12,WNW,301,3.4,9.6,0,0.00,,---,0.00,VWS V14.00,2013-01-07 12:46:00,
2013-01-07 07:51:00,32.2,0.0,30.13,NNW,343,0.0,8.0,0,0.00,,---,0.00,VWS V14.00,2013-01-07 12:51:00,
2013-01-07 07:56:00,32.2,0.0,30.13,NNW,343,0.0,5.1,0,0.00,,---,0.00,VWS V14.00,2013-01-07 12:56:00,
2013-01-07 08:01:00,32.2,0.0,30.14,NNW,343,0.0,0.0,0,0.00,,---,0.00,VWS V14.00,2013-01-07 13:01:00,
2013-01-07 08:06:00,31.9,0.0,30.14,NNW,343,0.0,0.0,0,0.00,,---,0.00,VWS V14.00,2013-01-07 13:06:00,
2013-01-07 08:11:00,32.1,0.0,30.14,NNW,343,0.0,0.0,0,0.00,,---,0.00,VWS V14.00,2013-01-07 13:11:00,
2013-01-07 08:16:00,32.2,0.0,30.15,NNW,343,0.0,0.0,0,0.00,,---,0.00,VWS V14.00,2013-01-07 13:16:00,
2013-01-07 08:21:00,32.2,0.0,30.15,NNW,343,0.0,0.0,0,0.00,,---,0.00,VWS V14.00,2013-01-07 13:21:00,
2013-01-07 08:26:00,32.3,0.0,30.16,NNW,343,0.0,0.0,0,0.00,,---,0.00,VWS V14.00,2013-01-07 13:26:00,
2013-01-07 08:31:00,32.4,0.0,30.17,NNW,343,0.0,0.0,0,0.00,,---,0.00,VWS V14.00,2013-01-07 13:31:00,
2013-01-07 08:36:00,32.6,0.0,30.17,NNE,17,0.0,0.0,0,0.00,,---,0.00,VWS V14.00,2013-01-07 13:36:00,
2013-01-07 08:41:00,32.5,0.0,30.18,NNE,17,0.0,5.3,0,0.00,,---,0.00,VWS V14.00,2013-01-07 13:41:00,
2013-01-07 08:46:00,32.5,0.0,30.18,NNE,17,0.0,0.0,0,0.00,,---,0.00,VWS V14.00,2013-01-07 13:46:00,
2013-01-07 08:51:00,32.6,0.0,30.19,North,359,0.0,5.8,0,0.00,,---,0.00,VWS V14.00,2013-01-07 13:51:00,
2013-01-07 08:56:00,32.5,0.0,30.19,North,359,0.0,3.4,0,0.00,,---,0.00,VWS V14.00,2013-01-07 13:56:00,
2013-01-07 09:01:00,32.5,0.0,30.20,North,359,0.0,3.3,0,0.00,,---,0.00,VWS V14.00,2013-01-07 14:01:00,
2013-01-07 09:06:00,32.4,0.0,30.20,NNE,14,0.0,6.8,0,0.00,,---,0.00,VWS V14.00,2013-01-07 14:06:00,
2013-01-07 09:11:00,32.6,0.0,30.20,NNE,28,0.0,7.0,0,0.00,,---,0.00,VWS V14.00,2013-01-07 14:11:00,
2013-01-07 09:16:00,32.5,0.0,30.21,NNW,329,2.6,6.0,0,0.00,,---,0.00,VWS V14.00,2013-01-07 14:16:00,
2013-01-07 09:21:00,32.0,0.0,30.21,NNW,347,0.0,5.6,0,0.00,,---,0.00,VWS V14.00,2013-01-07 14:21:00,
2013-01-07 09:26:00,31.7,0.0,30.22,NNE,30,0.0,4.9,0,0.00,,---,0.00,VWS V14.00,2013-01-07 14:26:00,
2013-01-07 09:31:00,31.8,0.0,30.23,NNE,30,0.0,9.9,0,0.00,,---,0.00,VWS V14.00,2013-01-07 14:31:00,
2013-01-07 09:36:00,31.8,0.0,30.23,NNE,30,0.0,0.0,0,0.00,,---,0.00,VWS V14.00,2013-01-07 14:36:00,
2013-01-07 09:41:00,31.8,0.0,30.24,NNE,30,0.0,0.0,0,0.00,,---,0.00,VWS V14.00,2013-01-07 14:41:00,
2013-01-07 09:46:00,31.8,0.0,30.24,NNE,30,0.0,0.0,0,0.00,,---,0.00,VWS V14.00,2013-01-07 14:46:00,
2013-01-07 09:51:00,31.8,0.0,30.24,NNE,30,0.0,0.0,0,0.00,,---,0.00,VWS V14.00,2013-01-07 14:51:00,
2013-01-07 09:56:00,31.7,0.0,30.25,NNE,30,0.0,0.0,0,0.00,,---,0.00,VWS V14.00,2013-01-07 14:56:00,
2013-01-07 10:01:00,32.2,0.0,30.25,NNE,30,0.0,0.0,0,0.00,,---,0.00,VWS V14.00,2013-01-07 15:01:00,
2013-01-07 10:06:00,32.9,0.0,30.25,NE,51,5.6,0.0,0,0.00,,---,0.00,VWS V14.00,2013-01-07 15:06:00,
2013-01-07 10:11:00,34.0,0.0,30.25,NNE,20,6.1,7.3,0,0.00,,---,0.00,VWS V14.00,2013-01-07 15:11:00,
2013-01-07 10:16:00,33.7,0.0,30.25,NNE,13,5.2,9.1,0,0.00,,---,0.00,VWS V14.00,2013-01-07 15:16:00,
2013-01-07 10:21:00,33.3,0.0,30.25,NW,318,6.2,11.9,0,0.00,,---,0.00,VWS V14.00,2013-01-07 15:21:00,
2013-01-07 10:26:00,32.5,0.0,30.25,NNE,31,6.0,13.4,0,0.00,,---,0.00,VWS V14.00,2013-01-07 15:26:00,
2013-01-07 10:31:00,32.4,0.0,30.25,ENE,76,8.9,14.7,0,0.00,,---,0.00,VWS V14.00,2013-01-07 15:31:00,
2013-01-07 10:36:00,32.5,0.0,30.25,NE,41,0.0,11.4,0,0.00,,---,0.00,VWS V14.00,2013-01-07 15:36:00,
2013-01-07 10:41:00,33.3,0.0,30.25,NNE,32,0.0,11.4,0,0.00,,---,0.00,VWS V14.00,2013-01-07 15:41:00,
2013-01-07 10:46:00,35.6,0.0,30.25,NE,39,6.8,10.6,0,0.00,,---,0.00,VWS V14.00,2013-01-07 15:46:00,
2013-01-07 10:51:00,33.8,0.0,30.25,NE,49,4.9,12.1,0,0.00,,---,0.00,VWS V14.00,2013-01-07 15:51:00,
2013-01-07 10:56:00,33.6,0.0,30.25,NE,38,9.6,11.3,0,0.00,,---,0.00,VWS V14.00,2013-01-07 15:56:00,
2013-01-07 11:01:00,33.3,0.0,30.25,NE,38,7.1,11.6,0,0.00,,---,0.00,VWS V14.00,2013-01-07 16:01:00,
2013-01-07 11:06:00,33.3,0.0,30.25,NE,34,0.0,11.9,0,0.00,,---,0.00,VWS V14.00,2013-01-07 16:06:00,
2013-01-07 11:11:00,33.3,0.0,30.26,North,359,0.0,12.0,0,0.00,,---,0.00,VWS V14.00,2013-01-07 16:11:00,
2013-01-07 11:16:00,33.3,0.0,30.26,North,7,3.2,8.8,0,0.00,,---,0.00,VWS V14.00,2013-01-07 16:16:00,
2013-01-07 11:21:00,33.3,0.0,30.26,NNE,17,0.0,9.3,0,0.00,,---,0.00,VWS V14.00,2013-01-07 16:21:00,
2013-01-07 11:26:00,33.2,0.0,30.26,NE,39,3.4,10.1,0,0.00,,---,0.00,VWS V14.00,2013-01-07 16:26:00,
2013-01-07 11:31:00,33.3,0.0,30.26,ENE,69,8.3,10.3,0,0.00,,---,0.00,VWS V14.00,2013-01-07 16:31:00,
2013-01-07 11:36:00,33.1,0.0,30.26,NNE,24,4.2,8.9,0,0.00,,---,0.00,VWS V14.00,2013-01-07 16:36:00,
2013-01-07 11:41:00,33.7,0.0,30.26,SE,145,3.1,11.4,0,0.00,,---,0.00,VWS V14.00,2013-01-07 16:41:00,
2013-01-07 11:46:00,33.7,0.0,30.26,ENE,75,8.7,10.4,0,0.00,,---,0.00,VWS V14.00,2013-01-07 16:46:00,
2013-01-07 11:51:00,33.9,0.0,30.27,NNE,27,0.0,12.8,0,0.00,,---,0.00,VWS V14.00,2013-01-07 16:51:00,
2013-01-07 11:56:00,34.0,0.0,30.26,ESE,117,4.7,10.9,0,0.00,,---,0.00,VWS V14.00,2013-01-07 16:56:00,
2013-01-07 12:01:00,33.9,0.0,30.27,NNE,14,9.1,9.9,0,0.00,,---,0.00,VWS V14.00,2013-01-07 17:01:00,
2013-01-07 12:06:00,33.3,0.0,30.27,NNE,30,8.9,11.1,0,0.00,,---,0.00,VWS V14.00,2013-01-07 17:06:00,
2013-01-07 12:11:00,32.9,0.0,30.28,NE,41,0.0,11.6,0,0.00,,---,0.00,VWS V14.00,2013-01-07 17:11:00,
2013-01-07 12:16:00,32.7,0.0,30.28,NE,51,3.4,12.7,0,0.00,,---,0.00,VWS V14.00,2013-01-07 17:16:00,
2013-01-07 12:21:00,32.9,0.0,30.28,NE,48,10.6,12.7,0,0.00,,---,0.00,VWS V14.00,2013-01-07 17:21:00,
2013-01-07 12:26:00,32.7,0.0,30.28,NNE,32,10.4,12.3,0,0.00,,---,0.00,VWS V14.00,2013-01-07 17:26:00,
2013-01-07 12:31:00,32.6,0.0,30.28,NE,49,9.4,13.0,0,0.00,,---,0.00,VWS V14.00,2013-01-07 17:31:00,
2013-01-07 12:36:00,32.1,0.0,30.28,ENE,68,3.4,13.4,0,0.00,,---,0.00,VWS V14.00,2013-01-07 17:36:00,
2013-01-07 12:41:00,32.8,0.0,30.28,ENE,65,0.0,13.4,0,0.00,,---,0.00,VWS V14.00,2013-01-07 17:41:00,
2013-01-07 12:46:00,35.0,0.0,30.28,NE,34,10.7,10.7,0,0.00,,---,0.00,VWS V14.00,2013-01-07 17:46:00,
2013-01-07 12:51:00,34.4,0.0,30.28,East,82,0.0,12.6,0,0.00,,---,0.00,VWS V14.00,2013-01-07 17:51:00,
2013-01-07 12:56:00,34.3,0.0,30.29,ESE,112,5.9,10.3,0,0.00,,---,0.00,VWS V14.00,2013-01-07 17:56:00,
2013-01-07 13:01:00,37.2,0.0,30.29,East,98,0.0,9.8,0,0.00,,---,0.00,VWS V14.00,2013-01-07 18:01:00,
2013-01-07 13:06:00,37.4,0.0,30.29,East,97,2.4,8.1,0,0.00,,---,0.00,VWS V14.00,2013-01-07 18:06:00,
2013-01-07 13:11:00,36.9,0.0,30.29,NE,46,0.0,8.6,0,0.00,,---,0.00,VWS V14.00,2013-01-07 18:11:00,
2013-01-07 13:16:00,36.3,0.0,30.29,ENE,70,0.0,7.8,0,0.00,,---,0.00,VWS V14.00,2013-01-07 18:16:00,
2013-01-07 13:21:00,36.2,0.0,30.29,ENE,70,0.0,7.6,0,0.00,,---,0.00,VWS V14.00,2013-01-07 18:21:00,
2013-01-07 13:26:00,36.2,0.0,30.30,NE,41,0.0,8.1,0,0.00,,---,0.00,VWS V14.00,2013-01-07 18:26:00,
2013-01-07 13:31:00,35.6,0.0,30.30,North,11,0.0,8.0,0,0.00,,---,0.00,VWS V14.00,2013-01-07 18:31:00,
2013-01-07 13:36:00,35.1,0.0,30.29,East,86,0.0,5.9,0,0.00,,---,0.00,VWS V14.00,2013-01-07 18:36:00,
2013-01-07 13:41:00,35.1,0.0,30.30,ENE,59,5.5,6.6,0,0.00,,---,0.00,VWS V14.00,2013-01-07 18:41:00,
2013-01-07 13:46:00,34.6,0.0,30.30,ESE,111,0.0,8.0,0,0.00,,---,0.00,VWS V14.00,2013-01-07 18:46:00,
2013-01-07 13:51:00,35.2,0.0,30.30,NE,34,4.2,7.8,0,0.00,,---,0.00,VWS V14.00,2013-01-07 18:51:00,
2013-01-07 13:56:00,34.8,0.0,30.30,NE,48,5.7,7.9,0,0.00,,---,0.00,VWS V14.00,2013-01-07 18:56:00,
2013-01-07 14:01:00,35.0,0.0,30.31,NNE,22,0.0,8.6,0,0.00,,---,0.00,VWS V14.00,2013-01-07 19:01:00,
2013-01-07 14:06:00,35.3,0.0,30.31,NNE,17,0.0,6.3,0,0.00,,---,0.00,VWS V14.00,2013-01-07 19:06:00,
2013-01-07 14:11:00,34.7,0.0,30.31,ENE,65,0.0,6.6,0,0.00,,---,0.00,VWS V14.00,2013-01-07 19:11:00,
2013-01-07 14:16:00,34.4,0.0,30.31,NNE,18,0.0,6.7,0,0.00,,---,0.00,VWS V14.00,2013-01-07 19:16:00,
2013-01-07 14:21:00,34.1,0.0,30.31,ENE,68,0.0,4.5,0,0.00,,---,0.00,VWS V14.00,2013-01-07 19:21:00,
2013-01-07 14:26:00,34.6,0.0,30.31,NNE,28,0.0,3.4,0,0.00,,---,0.00,VWS V14.00,2013-01-07 19:26:00,
2013-01-07 14:31:00,34.7,0.0,30.32,NNE,28,0.0,5.8,0,0.00,,---,0.00,VWS V14.00,2013-01-07 19:31:00,
2013-01-07 14:36:00,34.4,0.0,30.32,East,98,0.0,4.5,0,0.00,,---,0.00,VWS V14.00,2013-01-07 19:36:00,
2013-01-07 14:41:00,34.6,0.0,30.32,East,98,0.0,0.0,0,0.00,,---,0.00,VWS V14.00,2013-01-07 19:41:00,
2013-01-07 14:46:00,33.8,0.0,30.32,East,98,0.0,0.0,0,0.00,,---,0.00,VWS V14.00,2013-01-07 19:46:00,
2013-01-07 14:51:00,34.3,0.0,30.32,NNE,31,0.0,0.0,0,0.00,,---,0.00,VWS V14.00,2013-01-07 19:51:00,
2013-01-07 14:56:00,34.2,0.0,30.32,NNE,27,0.0,4.9,0,0.00,,---,0.00,VWS V14.00,2013-01-07 19:56:00,
2013-01-07 15:01:00,33.8,0.0,30.32,NNE,27,0.0,0.0,0,0.00,,---,0.00,VWS V14.00,2013-01-07 20:01:00,
2013-01-07 15:06:00,33.9,0.0,30.33,NNE,27,0.0,0.0,0,0.00,,---,0.00,VWS V14.00,2013-01-07 20:06:00,
2013-01-07 15:11:00,33.7,0.0,30.33,NNE,27,0.0,0.0,0,0.00,,---,0.00,VWS V14.00,2013-01-07 20:11:00,
2013-01-07 15:16:00,33.5,0.0,30.33,NNE,27,0.0,0.0,0,0.00,,---,0.00,VWS V14.00,2013-01-07 20:16:00,
2013-01-07 15:19:00,33.4,0.0,30.33,NNE,27,0.0,0.0,0,0.00,,---,0.00,VWS V14.00,2013-01-07 20:19:00,
2013-01-07 15:24:00,33.1,0.0,30.33,NNE,27,0.0,0.0,0,0.00,,---,0.00,VWS V14.00,2013-01-07 20:24:00,
2013-01-07 15:29:00,33.0,0.0,30.33,NNE,27,0.0,0.0,0,0.00,,---,0.00,VWS V14.00,2013-01-07 20:29:00,
2013-01-07 15:34:00,33.0,0.0,30.33,NNE,27,0.0,0.0,0,0.00,,---,0.00,VWS V14.00,2013-01-07 20:34:00,
2013-01-07 15:39:00,32.6,0.0,30.33,NNE,27,0.0,0.0,0,0.00,,---,0.00,VWS V14.00,2013-01-07 20:39:00,
2013-01-07 15:44:00,32.1,0.0,30.33,NNE,27,0.0,0.0,0,0.00,,---,0.00,VWS V14.00,2013-01-07 20:44:00,
2013-01-07 15:49:00,32.0,0.0,30.33,NNE,27,0.0,0.0,0,0.00,,---,0.00,VWS V14.00,2013-01-07 20:49:00,
2013-01-07 15:54:00,32.2,0.0,30.34,NNE,27,0.0,0.0,0,0.00,,---,0.00,VWS V14.00,2013-01-07 20:54:00,
2013-01-07 15:59:00,32.4,0.0,30.35,NNE,27,0.0,0.0,0,0.00,,---,0.00,VWS V14.00,2013-01-07 20:59:00,
2013-01-07 16:04:00,32.0,0.0,30.35,NNE,27,0.0,0.0,0,0.00,,---,0.00,VWS V14.00,2013-01-07 21:04:00,
2013-01-07 16:09:00,31.7,0.0,30.35,NNE,27,0.0,0.0,0,0.00,,---,0.00,VWS V14.00,2013-01-07 21:09:00,
2013-01-07 16:14:00,31.8,0.0,30.35,NNE,27,0.0,0.0,0,0.00,,---,0.00,VWS V14.00,2013-01-07 21:14:00,
2013-01-07 16:19:00,31.5,0.0,30.35,NNE,27,0.0,0.0,0,0.00,,---,0.00,VWS V14.00,2013-01-07 21:19:00,
2013-01-07 16:24:00,31.2,0.0,30.35,NNE,27,0.0,0.0,0,0.00,,---,0.00,VWS V14.00,2013-01-07 21:24:00,
2013-01-07 16:29:00,31.2,0.0,30.36,NNE,27,0.0,0.0,0,0.00,,---,0.00,VWS V14.00,2013-01-07 21:29:00,
2013-01-07 16:34:00,31.0,0.0,30.36,NNE,27,0.0,0.0,0,0.00,,---,0.00,VWS V14.00,2013-01-07 21:34:00,
2013-01-07 16:39:00,31.0,0.0,30.36,NNE,27,0.0,0.0,0,0.00,,---,0.00,VWS V14.00,2013-01-07 21:39:00,
2013-01-07 16:44:00,31.0,0.0,30.36,NNE,27,0.0,0.0,0,0.00,,---,0.00,VWS V14.00,2013-01-07 21:44:00,
2013-01-07 16:49:00,30.7,0.0,30.36,NNE,27,0.0,0.0,0,0.00,,---,0.00,VWS V14.00,2013-01-07 21:49:00,
2013-01-07 16:54:00,30.6,0.0,30.36,NNE,27,0.0,0.0,0,0.00,,---,0.00,VWS V14.00,2013-01-07 21:54:00,
2013-01-07 16:59:00,30.6,0.0,30.36,NNE,27,0.0,0.0,0,0.00,,---,0.00,VWS V14.00,2013-01-07 21:59:00,
2013-01-07 17:04:00,30.2,0.0,30.36,NNE,27,0.0,0.0,0,0.00,,---,0.00,VWS V14.00,2013-01-07 22:04:00,
2013-01-07 17:09:00,30.2,0.0,30.36,NNE,27,0.0,0.0,0,0.00,,---,0.00,VWS V14.00,2013-01-07 22:09:00,
2013-01-07 17:14:00,30.1,0.0,30.36,NNE,27,0.0,0.0,0,0.00,,---,0.00,VWS V14.00,2013-01-07 22:14:00,
2013-01-07 17:19:00,30.1,0.0,30.36,NNE,27,0.0,0.0,0,0.00,,---,0.00,VWS V14.00,2013-01-07 22:19:00,
2013-01-07 17:24:00,30.2,0.0,30.36,NNE,27,0.0,0.0,0,0.00,,---,0.00,VWS V14.00,2013-01-07 22:24:00,
2013-01-07 17:29:00,30.1,0.0,30.36,NNE,27,0.0,0.0,0,0.00,,---,0.00,VWS V14.00,2013-01-07 22:29:00,
2013-01-07 17:34:00,29.7,0.0,30.36,NNE,27,0.0,0.0,0,0.00,,---,0.00,VWS V14.00,2013-01-07 22:34:00,
2013-01-07 17:39:00,29.6,0.0,30.36,NNE,27,0.0,0.0,0,0.00,,---,0.00,VWS V14.00,2013-01-07 22:39:00,
2013-01-07 17:44:00,29.9,0.0,30.36,NNE,27,0.0,0.0,0,0.00,,---,0.00,VWS V14.00,2013-01-07 22:44:00,
2013-01-07 17:49:00,29.8,0.0,30.36,NNE,27,0.0,0.0,0,0.00,,---,0.00,VWS V14.00,2013-01-07 22:49:00,
2013-01-07 17:54:00,29.8,0.0,30.37,NNE,27,0.0,0.0,0,0.00,,---,0.00,VWS V14.00,2013-01-07 22:54:00,
2013-01-07 17:59:00,29.8,0.0,30.37,NNE,27,0.0,0.0,0,0.00,,---,0.00,VWS V14.00,2013-01-07 22:59:00,
2013-01-07 18:04:00,29.4,0.0,30.37,NNE,27,0.0,0.0,0,0.00,,---,0.00,VWS V14.00,2013-01-07 23:04:00,
2013-01-07 18:09:00,29.2,0.0,30.38,NNE,27,0.0,0.0,0,0.00,,---,0.00,VWS V14.00,2013-01-07 23:09:00,
2013-01-07 18:14:00,28.9,0.0,30.38,NNE,27,0.0,0.0,0,0.00,,---,0.00,VWS V14.00,2013-01-07 23:14:00,
2013-01-07 18:19:00,29.0,0.0,30.39,NNE,27,0.0,0.0,0,0.00,,---,0.00,VWS V14.00,2013-01-07 23:19:00,
2013-01-07 18:24:00,28.6,0.0,30.39,NNE,27,0.0,0.0,0,0.00,,---,0.00,VWS V14.00,2013-01-07 23:24:00,
2013-01-07 18:29:00,28.3,0.0,30.38,NNE,27,0.0,0.0,0,0.00,,---,0.00,VWS V14.00,2013-01-07 23:29:00,
2013-01-07 18:34:00,27.9,0.0,30.38,NNE,27,0.0,0.0,0,0.00,,---,0.00,VWS V14.00,2013-01-07 23:34:00,
2013-01-07 18:39:00,27.9,0.0,30.38,NNE,27,0.0,0.0,0,0.00,,---,0.00,VWS V14.00,2013-01-07 23:39:00,
2013-01-07 18:44:00,27.7,0.0,30.38,NNE,27,0.0,0.0,0,0.00,,---,0.00,VWS V14.00,2013-01-07 23:44:00,
2013-01-07 18:49:00,27.6,0.0,30.38,NNE,27,0.0,0.0,0,0.00,,---,0.00,VWS V14.00,2013-01-07 23:49:00,
2013-01-07 18:54:00,27.2,0.0,30.38,NNE,27,0.0,0.0,0,0.00,,---,0.00,VWS V14.00,2013-01-07 23:54:00,
2013-01-07 18:59:00,27.4,0.0,30.38,NNE,27,0.0,0.0,0,0.00,,---,0.00,VWS V14.00,2013-01-07 23:59:00,
2013-01-07 19:04:00,27.0,0.0,30.37,NNE,27,0.0,0.0,0,0.00,,---,0.00,VWS V14.00,2013-01-08 00:04:00,
2013-01-07 19:09:00,26.9,0.0,30.37,NNE,27,0.0,0.0,0,0.00,,---,0.00,VWS V14.00,2013-01-08 00:09:00,
2013-01-07 19:14:00,26.9,0.0,30.37,NNE,27,0.0,0.0,0,0.00,,---,0.00,VWS V14.00,2013-01-08 00:14:00,
2013-01-07 19:19:00,26.9,0.0,30.37,NNE,27,0.0,0.0,0,0.00,,---,0.00,VWS V14.00,2013-01-08 00:19:00,
2013-01-07 19:24:00,27.8,0.0,30.37,NNE,27,0.0,0.0,0,0.00,,---,0.00,VWS V14.00,2013-01-08 00:24:00,
2013-01-07 19:29:00,27.2,0.0,30.36,NNE,27,0.0,0.0,0,0.00,,---,0.00,VWS V14.00,2013-01-08 00:29:00,
2013-01-07 19:34:00,27.1,0.0,30.36,NNE,27,0.0,0.0,0,0.00,,---,0.00,VWS V14.00,2013-01-08 00:34:00,
2013-01-07 19:39:00,27.1,0.0,30.36,NNE,27,0.0,0.0,0,0.00,,---,0.00,VWS V14.00,2013-01-08 00:39:00,
2013-01-07 19:44:00,27.6,0.0,30.36,NNE,27,0.0,0.0,0,0.00,,---,0.00,VWS V14.00,2013-01-08 00:44:00,
2013-01-07 19:49:00,27.6,0.0,30.37,NNE,27,0.0,0.0,0,0.00,,---,0.00,VWS V14.00,2013-01-08 00:49:00,
2013-01-07 19:54:00,27.5,0.0,30.36,NNE,27,0.0,0.0,0,0.00,,---,0.00,VWS V14.00,2013-01-08 00:54:00,
2013-01-07 19:59:00,27.5,0.0,30.37,NNE,27,0.0,0.0,0,0.00,,---,0.00,VWS V14.00,2013-01-08 00:59:00,
2013-01-07 20:04:00,27.3,0.0,30.37,NNE,27,0.0,0.0,0,0.00,,---,0.00,VWS V14.00,2013-01-08 01:04:00,
2013-01-07 20:09:00,27.2,0.0,30.37,NNE,27,0.0,0.0,0,0.00,,---,0.00,VWS V14.00,2013-01-08 01:09:00,
2013-01-07 20:14:00,27.3,0.0,30.37,NNE,27,0.0,0.0,0,0.00,,---,0.00,VWS V14.00,2013-01-08 01:14:00,
2013-01-07 20:19:00,27.4,0.0,30.37,NNE,27,0.0,0.0,0,0.00,,---,0.00,VWS V14.00,2013-01-08 01:19:00,
2013-01-07 20:24:00,27.6,0.0,30.37,NNE,27,0.0,0.0,0,0.00,,---,0.00,VWS V14.00,2013-01-08 01:24:00,
2013-01-07 20:29:00,27.4,0.0,30.37,NNE,27,0.0,0.0,0,0.00,,---,0.00,VWS V14.00,2013-01-08 01:29:00,
2013-01-07 20:34:00,27.5,0.0,30.36,NNE,27,0.0,0.0,0,0.00,,---,0.00,VWS V14.00,2013-01-08 01:34:00,
2013-01-07 20:39:00,27.6,0.0,30.36,NNE,27,0.0,0.0,0,0.00,,---,0.00,VWS V14.00,2013-01-08 01:39:00,
2013-01-07 20:44:00,27.5,0.0,30.36,NNE,27,0.0,0.0,0,0.00,,---,0.00,VWS V14.00,2013-01-08 01:44:00,
2013-01-07 20:49:00,27.8,0.0,30.36,NNE,27,0.0,0.0,0,0.00,,---,0.00,VWS V14.00,2013-01-08 01:49:00,
2013-01-07 20:54:00,27.7,0.0,30.36,NNE,27,0.0,0.0,0,0.00,,---,0.00,VWS V14.00,2013-01-08 01:54:00,
2013-01-07 20:59:00,27.7,0.0,30.36,NNE,27,0.0,0.0,0,0.00,,---,0.00,VWS V14.00,2013-01-08 01:59:00,
2013-01-07 21:04:00,27.8,0.0,30.36,SW,228,0.0,5.3,0,0.00,,---,0.00,VWS V14.00,2013-01-08 02:04:00,
2013-01-07 21:09:00,27.7,0.0,30.36,SW,228,0.0,0.0,0,0.00,,---,0.00,VWS V14.00,2013-01-08 02:09:00,
2013-01-07 21:14:00,27.7,0.0,30.36,SW,228,0.0,0.0,0,0.00,,---,0.00,VWS V14.00,2013-01-08 02:14:00,
2013-01-07 21:19:00,27.8,0.0,30.36,SW,214,0.0,5.4,0,0.00,,---,0.00,VWS V14.00,2013-01-08 02:19:00,
2013-01-07 21:24:00,28.0,0.0,30.36,SW,221,0.0,6.3,0,0.00,,---,0.00,VWS V14.00,2013-01-08 02:24:00,
2013-01-07 21:29:00,28.0,0.0,30.36,SW,221,0.0,0.0,0,0.00,,---,0.00,VWS V14.00,2013-01-08 02:29:00,
2013-01-07 21:34:00,27.8,0.0,30.36,SW,221,0.0,0.0,0,0.00,,---,0.00,VWS V14.00,2013-01-08 02:34:00,
2013-01-07 21:39:00,27.7,0.0,30.36,SW,221,0.0,0.0,0,0.00,,---,0.00,VWS V14.00,2013-01-08 02:39:00,
2013-01-07 21:44:00,27.7,0.0,30.36,SW,221,0.0,0.0,0,0.00,,---,0.00,VWS V14.00,2013-01-08 02:44:00,
2013-01-07 21:49:00,27.8,0.0,30.36,SW,221,0.0,0.0,0,0.00,,---,0.00,VWS V14.00,2013-01-08 02:49:00,
2013-01-07 21:54:00,27.9,0.0,30.36,SW,225,0.0,2.9,0,0.00,,---,0.00,VWS V14.00,2013-01-08 02:54:00,
2013-01-07 21:59:00,27.9,0.0,30.36,SW,224,0.0,7.7,0,0.00,,---,0.00,VWS V14.00,2013-01-08 02:59:00,
2013-01-07 22:04:00,27.9,0.0,30.36,SSW,211,4.3,6.8,0,0.00,,---,0.00,VWS V14.00,2013-01-08 03:04:00,
2013-01-07 22:09:00,27.8,0.0,30.36,SW,221,5.2,6.1,0,0.00,,---,0.00,VWS V14.00,2013-01-08 03:09:00,
2013-01-07 22:14:00,27.7,0.0,30.36,SSW,201,0.0,6.0,0,0.00,,---,0.00,VWS V14.00,2013-01-08 03:14:00,
2013-01-07 22:19:00,27.6,0.0,30.36,SW,232,3.4,7.0,0,0.00,,---,0.00,VWS V14.00,2013-01-08 03:19:00,
2013-01-07 22:24:00,27.7,0.0,30.36,SSW,200,0.0,7.6,0,0.00,,---,0.00,VWS V14.00,2013-01-08 03:24:00,
2013-01-07 22:28:00,27.8,0.0,30.36,SSW,200,0.0,0.0,0,0.00,,---,0.00,VWS V14.00,2013-01-08 03:28:00,
2013-01-07 22:33:00,27.7,0.0,30.36,SSW,200,0.0,0.0,0,0.00,,---,0.00,VWS V14.00,2013-01-08 03:33:00,
2013-01-07 22:38:00,27.5,0.0,30.36,SSW,197,0.0,4.3,0,0.00,,---,0.00,VWS V14.00,2013-01-08 03:38:00,
2013-01-07 22:43:00,27.4,0.0,30.35,SSW,212,0.0,4.4,0,0.00,,---,0.00,VWS V14.00,2013-01-08 03:43:00,
2013-01-07 22:48:00,27.3,0.0,30.36,SSW,212,0.0,0.0,0,0.00,,---,0.00,VWS V14.00,2013-01-08 03:48:00,
2013-01-07 22:53:00,27.3,0.0,30.36,SSW,212,0.0,0.0,0,0.00,,---,0.00,VWS V14.00,2013-01-08 03:53:00,
2013-01-07 22:58:00,27.1,0.0,30.35,SSW,212,0.0,0.0,0,0.00,,---,0.00,VWS V14.00,2013-01-08 03:58:00,
2013-01-07 23:03:00,26.9,0.0,30.35,SSW,212,0.0,0.0,0,0.00,,---,0.00,VWS V14.00,2013-01-08 04:03:00,
2013-01-07 23:08:00,27.0,0.0,30.35,SSW,212,0.0,0.0,0,0.00,,---,0.00,VWS V14.00,2013-01-08 04:08:00,
2013-01-07 23:13:00,27.0,0.0,30.35,SSW,212,0.0,0.0,0,0.00,,---,0.00,VWS V14.00,2013-01-08 04:13:00,
2013-01-07 23:18:00,27.2,0.0,30.35,SSW,212,0.0,0.0,0,0.00,,---,0.00,VWS V14.00,2013-01-08 04:18:00,
2013-01-07 23:23:00,27.3,0.0,30.35,SSW,205,6.2,8.9,0,0.00,,---,0.00,VWS V14.00,2013-01-08 04:23:00,
2013-01-07 23:28:00,27.3,0.0,30.34,SW,217,4.2,9.6,0,0.00,,---,0.00,VWS V14.00,2013-01-08 04:28:00,
2013-01-07 23:33:00,27.3,0.0,30.34,SW,231,4.9,9.5,0,0.00,,---,0.00,VWS V14.00,2013-01-08 04:33:00,
2013-01-07 23:38:00,27.1,0.0,30.34,SW,217,0.0,8.6,0,0.00,,---,0.00,VWS V14.00,2013-01-08 04:38:00,
2013-01-07 23:43:00,27.1,0.0,30.34,SW,214,6.0,9.1,0,0.00,,---,0.00,VWS V14.00,2013-01-08 04:43:00,
2013-01-07 23:48:00,27.0,0.0,30.34,SSW,211,5.7,9.5,0,0.00,,---,0.00,VWS V14.00,2013-01-08 04:48:00,